User: anonymous   Login
Location: Basse Occidentale du Courleau
(48.3833°N, 4.8333°W)
Time: 04:04:28
(UTC+00:00)
Language:

BREEZE-M DEB (TANK) - Orbit

View from above orbital plane
View from above orbital plane
View from above satellite
View from above satellite

Ground track
Ground track

The orbit data is extracted from the following two-line orbital elements,

1 39010U 12065C   20266.56235967 -.00000160 +00000-0 -12031-4 0  9996
2 39010 049.6653 082.6287 4659680 183.3787 171.9453 06.16325396173727
Epoch (UTC): 22 September 2020 13:29:47
Eccentricity: 0.4659680
inclination: 49.6653°
perigee height: 332 km
apogee height: 12043 km
right ascension of ascending node: 82.6287°
argument of perigee: 183.3787°
revolutions per day: 6.16325396
mean anomaly at epoch: 171.9453°
orbit number at epoch: 17372

The dashed part of the orbit path shows where the satellite is in the earth's shadow,  

DLR